Location: Unspecified
(48.2082°N, 0.0000°E)
Time: 00:37:39
(UTC+00:00)

Transit 4A - Pass Details

Date: 20 June 2019
Orbit: 863 x 981 km, 66.8° (Epoch: 18 August)

Event Time Altitude Azimuth Distance (km) Brightness Sun altitude
Rises 15:54:04 0° 325° (NW) 3,695 11.3 38.3°
Reaches altitude 10° 15:56:51 10° 333° (NNW) 2,742 10.7 37.8°
Maximum altitude 16:02:51 40° 42° (NE) 1,407 8.9 36.8°
Drops below altitude 10° 16:08:44 10° 111° (ESE) 2,689 10.0 35.8°
Sets 16:11:26 0° 119° (ESE) 3,616 10.6 35.4°
